Precipitable_Water
0.27 0.24 0.21 0.23 0.24 0.25 0.25 0.24 0.24 0.27 0.30 0.28 0.25 0.23 0.24 0.25 0.27 0.27 0.26 0.25 0.21 0.20 0.25 0.27 0.31 0.33 0.37 0.41 0.38 0.34 0.35 0.34 0.36 0.33 0.33 0.32 0.31 0.32 0.33 0.33 0.32 0.34 0.35 0.34
0.24 0.21 0.25 0.26 0.25 0.26 0.26 0.24 0.24 0.28 0.30 0.27 0.24 0.23 0.25 0.26 0.26 0.28 0.28 0.26 0.22 0.23 0.26 0.27 0.31 0.34 0.37 0.39 0.39 0.35 0.33 0.31 0.29 0.29 0.32 0.35 0.34 0.35 0.36 0.35 0.31 0.32 0.31 0.31
0.22 0.25 0.29 0.28 0.28 0.28 0.28 0.25 0.25 0.25 0.28 0.28 0.25 0.23 0.23 0.26 0.26 0.27 0.28 0.26 0.25 0.26 0.26 0.27 0.31 0.34 0.37 0.41 0.40 0.36 0.35 0.32 0.29 0.29 0.30 0.35 0.35 0.33 0.33 0.33 0.31 0.31 0.29 0.26
0.26 0.30 0.28 0.28 0.27 0.30 0.26 0.31 0.30 0.27 0.25 0.20 0.28 0.17 0.23 0.28 0.24 0.25 0.25 0.26 0.27 0.27 0.29 0.29 0.31 0.33 0.39 0.42 0.42 0.39 0.37 0.32 0.30 0.29 0.28 0.31 0.31 0.29 0.31 0.31 0.30 0.29 0.27 0.25
0.26 0.28 0.28 0.29 0.32 0.34 0.30 0.34 0.32 0.29 0.25 0.25 0.24 0.21 0.24 0.27 0.22 0.23 0.24 0.26 0.27 0.29 0.29 0.30 0.32 0.39 0.44 0.44 0.40 0.38 0.36 0.34 0.33 0.30 0.29 0.32 0.34 0.32 0.30 0.29 0.25 0.24 0.25 0.27
0.30 0.34 0.32 0.33 0.38 0.38 0.39 0.34 0.31 0.29 0.28 0.19 0.24 0.23 0.23 0.25 0.24 0.23 0.25 0.26 0.28 0.30 0.33 0.37 0.43 0.45 0.44 0.45 0.41 0.35 0.32 0.32 0.32 0.30 0.30 0.31 0.33 0.29 0.25 0.24 0.23 0.23 0.25 0.28
0.32 0.32 0.35 0.38 0.36 0.39 0.39 0.33 0.23 0.19 0.20 0.19 0.28 0.24 0.26 0.28 0.25 0.24 0.27 0.33 0.37 0.41 0.41 0.42 0.43 0.43 0.43 0.42 0.38 0.32 0.31 0.31 0.33 0.31 0.30 0.29 0.30 0.26 0.24 0.24 0.23 0.22 0.25 0.28
0.25 0.25 0.34 0.38 0.37 0.36 0.36 0.34 0.26 0.19 0.18 0.20 0.28 0.22 0.25 0.30 0.28 0.31 0.36 0.38 0.40 0.40 0.42 0.43 0.44 0.44 0.42 0.39 0.34 0.32 0.31 0.30 0.31 0.29 0.27 0.28 0.28 0.26 0.24 0.24 0.22 0.24 0.26 0.28
0.28 0.29 0.38 0.40 0.39 0.41 0.36 0.31 0.35 0.28 0.27 0.22 0.24 0.27 0.30 0.30 0.32 0.34 0.35 0.37 0.38 0.41 0.43 0.43 0.44 0.44 0.40 0.35 0.31 0.32 0.30 0.30 0.29 0.27 0.26 0.28 0.26 0.24 0.23 0.22 0.24 0.24 0.25 0.27
0.37 0.28 0.38 0.40 0.41 0.41 0.39 0.39 0.30 0.29 0.20 0.17 0.22 0.23 0.23 0.27 0.30 0.33 0.34 0.35 0.38 0.41 0.42 0.43 0.43 0.41 0.39 0.33 0.32 0.32 0.31 0.29 0.28 0.27 0.27 0.26 0.24 0.24 0.24 0.24 0.23 0.22 0.24 0.28
0.40 0.37 0.37 0.41 0.39 0.37 0.36 0.34 0.33 0.32 0.30 0.22 0.17 0.20 0.32 0.30 0.30 0.31 0.34 0.36 0.38 0.41 0.41 0.42 0.41 0.41 0.37 0.34 0.33 0.32 0.29 0.29 0.28 0.27 0.25 0.23 0.25 0.26 0.24 0.22 0.22 0.22 0.24 0.26
0.43 0.40 0.33 0.36 0.43 0.44 0.41 0.36 0.32 0.26 0.25 0.26 0.23 0.19 0.34 0.33 0.31 0.31 0.34 0.36 0.40 0.41 0.41 0.41 0.41 0.38 0.34 0.33 0.32 0.30 0.29 0.28 0.27 0.25 0.22 0.23 0.25 0.23 0.21 0.20 0.20 0.21 0.22 0.25
0.47 0.41 0.32 0.33 0.38 0.40 0.38 0.39 0.36 0.32 0.29 0.22 0.20 0.20 0.33 0.34 0.33 0.34 0.36 0.39 0.39 0.40 0.40 0.40 0.38 0.35 0.33 0.32 0.32 0.30 0.29 0.27 0.25 0.23 0.22 0.23 0.23 0.20 0.19 0.18 0.18 0.19 0.21 0.24
0.49 0.43 0.40 0.31 0.35 0.41 0.36 0.37 0.33 0.29 0.23 0.21 0.22 0.22 0.29 0.32 0.34 0.36 0.37 0.37 0.37 0.38 0.38 0.38 0.37 0.34 0.33 0.33 0.32 0.30 0.29 0.27 0.24 0.22 0.22 0.22 0.19 0.18 0.17 0.17 0.18 0.19 0.21 0.25
0.49 0.39 0.41 0.42 0.42 0.39 0.36 0.34 0.29 0.25 0.26 0.22 0.22 0.25 0.28 0.32 0.33 0.34 0.35 0.36 0.36 0.37 0.38 0.38 0.36 0.33 0.31 0.31 0.31 0.30 0.29 0.25 0.24 0.23 0.23 0.19 0.18 0.17 0.16 0.16 0.18 0.20 0.22 0.25
0.50 0.41 0.41 0.34 0.40 0.36 0.31 0.32 0.28 0.27 0.27 0.26 0.26 0.24 0.33 0.33 0.35 0.33 0.34 0.35 0.37 0.37 0.37 0.37 0.34 0.31 0.29 0.29 0.31 0.31 0.27 0.25 0.25 0.24 0.22 0.19 0.18 0.16 0.15 0.16 0.18 0.19 0.21 0.23
0.48 0.44 0.37 0.28 0.34 0.32 0.25 0.25 0.25 0.24 0.26 0.27 0.22 0.26 0.32 0.31 0.31 0.32 0.35 0.38 0.38 0.36 0.36 0.34 0.31 0.30 0.30 0.30 0.32 0.29 0.27 0.27 0.26 0.25 0.21 0.18 0.17 0.16 0.16 0.17 0.18 0.19 0.20 0.23
0.46 0.41 0.36 0.27 0.30 0.19 0.26 0.31 0.30 0.27 0.29 0.31 0.30 0.31 0.32 0.31 0.33 0.36 0.40 0.39 0.38 0.37 0.34 0.32 0.32 0.31 0.31 0.30 0.29 0.29 0.28 0.27 0.27 0.25 0.20 0.19 0.17 0.16 0.16 0.17 0.17 0.19 0.20 0.23
0.48 0.39 0.31 0.26 0.24 0.25 0.28 0.29 0.28 0.27 0.26 0.33 0.31 0.31 0.32 0.36 0.39 0.39 0.44 0.40 0.37 0.35 0.33 0.32 0.32 0.30 0.29 0.28 0.27 0.27 0.26 0.26 0.25 0.25 0.20 0.19 0.18 0.17 0.17 0.16 0.16 0.18 0.20 0.23
0.38 0.38 0.31 0.26 0.22 0.18 0.25 0.32 0.34 0.32 0.22 0.32 0.33 0.34 0.38 0.41 0.30 0.33 0.39 0.38 0.35 0.33 0.32 0.31 0.31 0.31 0.29 0.29 0.28 0.25 0.24 0.24 0.24 0.24 0.20 0.20 0.18 0.18 0.17 0.17 0.17 0.18 0.20 0.23
0.28 0.29 0.26 0.27 0.24 0.24 0.31 0.33 0.34 0.23 0.25 0.38 0.40 0.43 0.39 0.34 0.37 0.39 0.38 0.33 0.34 0.33 0.32 0.32 0.30 0.28 0.27 0.27 0.25 0.22 0.21 0.20 0.23 0.23 0.20 0.18 0.18 0.18 0.19 0.19 0.18 0.19 0.20 0.23
0.29 0.28 0.25 0.25 0.22 0.19 0.32 0.33 0.31 0.39 0.45 0.44 0.45 0.41 0.37 0.39 0.38 0.35 0.33 0.31 0.30 0.28 0.27 0.26 0.26 0.25 0.26 0.26 0.26 0.23 0.21 0.23 0.23 0.23 0.19 0.18 0.18 0.19 0.20 0.20 0.19 0.19 0.20 0.22
0.26 0.30 0.26 0.26 0.23 0.32 0.36 0.37 0.48 0.46 0.41 0.42 0.38 0.40 0.40 0.36 0.34 0.31 0.28 0.27 0.26 0.26 0.25 0.26 0.25 0.25 0.25 0.25 0.25 0.22 0.22 0.23 0.23 0.22 0.19 0.19 0.18 0.19 0.20 0.20 0.20 0.19 0.21 0.22
0.33 0.36 0.31 0.30 0.32 0.36 0.41 0.45 0.42 0.43 0.40 0.43 0.43 0.39 0.36 0.32 0.30 0.27 0.26 0.25 0.25 0.24 0.24 0.25 0.24 0.22 0.22 0.24 0.24 0.24 0.24 0.24 0.23 0.21 0.20 0.19 0.19 0.20 0.21 0.22 0.22 0.21 0.22 0.22
0.32 0.34 0.32 0.33 0.34 0.36 0.37 0.40 0.41 0.44 0.45 0.39 0.35 0.33 0.31 0.28 0.25 0.25 0.24 0.23 0.24 0.23 0.23 0.24 0.22 0.22 0.22 0.23 0.23 0.25 0.26 0.25 0.23 0.22 0.21 0.20 0.21 0.21 0.21 0.22 0.22 0.23 0.24 0.26
0.36 0.32 0.29 0.23 0.33 0.36 0.39 0.41 0.45 0.40 0.33 0.31 0.29 0.27 0.27 0.27 0.25 0.25 0.24 0.24 0.23 0.23 0.24 0.23 0.23 0.24 0.24 0.25 0.26 0.27 0.27 0.27 0.25 0.22 0.22 0.22 0.22 0.22 0.22 0.22 0.23 0.25 0.27 0.28
Wind_Speed
9 9 8 9 8 8 8 9 11 12 10 14 13 16 17 14 12 12 14 14 14 15 15 17 19 21 24 27 29 31 32 32 31 32 33 33 32 33 34 35 36 37 37 37
10 9 10 10 9 10 10 11 12 13 13 13 14 17 13 12 12 12 12 13 14 14 16 18 20 22 25 29 31 32 32 33 33 33 34 33 33 34 35 36 37 38 38 38
9 11 12 10 11 13 12 11 13 14 17 12 14 13 12 11 12 12 10 12 13 15 17 19 21 24 27 30 33 34 34 34 34 34 34 35 36 36 37 38 37 38 38 39
10 13 13 12 12 15 14 12 14 16 13 12 11 12 13 13 12 11 10 12 14 16 18 20 22 27 29 33 34 34 34 35 35 35 35 36 37 38 39 39 39 39 40 40
14 14 15 13 15 15 14 16 15 13 11 11 12 9 13 13 11 11 11 13 14 16 18 20 24 29 31 33 33 35 36 36 36 36 36 37 39 40 41 41 42 41 41 40
14 14 14 15 17 14 16 15 14 12 10 9 12 9 14 13 13 11 12 14 15 17 19 23 27 31 32 33 34 37 37 37 37 36 37 38 40 42 43 43 44 43 41 38
17 15 14 16 16 14 16 13 13 11 11 12 11 14 16 13 12 11 13 14 16 19 22 26 30 32 33 34 36 38 38 38 38 38 38 39 41 43 44 45 45 44 41 37
15 16 16 17 14 14 13 10 9 13 13 16 16 15 13 13 11 12 13 16 19 23 26 29 31 33 34 35 38 38 38 39 39 38 38 40 42 44 45 46 46 43 39 35
17 16 16 15 16 15 13 12 12 11 14 14 14 16 17 13 13 14 17 19 23 27 29 31 33 35 35 37 37 38 39 39 39 38 39 41 43 45 46 46 45 42 38 34
18 19 14 15 16 14 13 13 11 12 14 16 16 19 17 16 18 19 19 23 27 29 31 33 36 36 36 37 38 38 39 39 39 39 40 43 44 45 46 46 44 41 37 33
18 15 17 16 15 14 14 13 12 13 14 15 18 19 17 19 22 24 24 27 29 33 34 37 38 37 38 38 38 38 39 39 39 40 42 44 45 46 46 45 43 39 35 31
18 17 17 19 16 15 13 13 14 16 18 18 20 27 22 22 24 23 27 29 33 36 38 38 38 38 38 38 38 38 39 40 40 42 43 44 45 46 46 45 42 38 33 30
20 17 21 19 14 14 17 19 19 21 21 22 23 24 22 24 26 26 29 35 39 37 38 38 39 39 40 39 39 39 40 41 43 43 44 45 45 46 46 45 41 36 32 29
21 20 20 23 25 22 24 23 23 23 23 27 29 33 33 32 31 34 37 39 37 37 39 40 41 40 40 39 40 40 41 43 44 44 45 45 46 46 45 44 40 35 32 28
21 24 24 29 30 28 31 33 27 28 31 30 36 33 35 35 35 34 36 35 36 38 40 42 42 41 40 40 41 42 43 44 44 45 46 46 46 46 45 43 39 35 32 29
23 25 25 29 31 28 31 33 35 32 32 35 39 41 40 39 35 35 36 35 38 41 43 42 42 42 42 42 43 44 45 45 46 46 47 47 47 46 45 43 39 35 32 30
25 26 25 29 26 30 32 29 22 23 26 27 28 33 31 33 33 34 35 38 42 43 43 44 43 42 43 44 46 46 47 47 47 48 48 48 48 46 45 43 39 36 33 31
26 25 25 28 28 27 26 25 28 29 31 32 34 35 34 34 37 38 38 41 43 43 43 43 43 44 45 46 48 49 49 49 50 50 50 49 48 47 45 43 40 37 34 32
24 25 26 26 27 35 36 29 27 28 35 33 36 36 38 37 39 39 40 42 42 43 44 44 45 46 48 49 51 51 51 52 52 52 52 51 50 48 46 43 40 37 35 33
24 26 26 25 28 31 30 31 32 33 37 31 32 35 37 38 41 43 42 41 45 44 45 47 48 49 51 52 54 54 54 54 55 55 54 53 52 50 47 44 41 38 36 34
25 27 30 31 33 38 34 33 32 29 34 37 37 41 42 41 42 44 45 45 45 46 48 50 51 52 54 55 56 57 58 57 58 57 56 55 52 50 47 44 41 38 36 34
28 26 28 29 32 37 31 30 31 37 41 42 44 43 40 42 43 44 45 46 47 49 50 51 53 55 57 58 59 60 60 60 58 57 55 53 51 48 45 43 40 37 35 33
34 34 35 33 36 37 38 41 42 41 43 42 39 39 40 42 43 45 46 48 50 52 54 55 56 59 60 60 60 61 60 58 56 54 52 50 47 45 42 40 38 35 33 32
37 38 38 38 39 41 42 40 40 38 39 39 38 40 40 43 45 47 49 51 53 55 56 58 59 61 62 61 59 58 57 55 53 51 49 47 44 41 38 36 34 32 31 30
39 37 37 40 43 41 37 35 37 37 37 38 38 39 41 43 47 49 51 54 56 57 58 58 59 59 59 58 57 55 55 52 49 46 44 41 39 37 34 32 31 30 30 30
37 37 39 44 42 38 38 37 36 35 35 36 38 41 43 45 50 52 54 56 57 58 58 57 56 55 55 54 54 53 51 47 44 41 39 37 34 32 29 29 29 29 29 30
Wind_Direction
352 3 343 328 329 314 304 298 292 291 293 301 291 290 290 295 295 277 267 270 270 275 288 296 304 310 316 320 321 321 319 319 319 319 319 318 317 315 313 310 308 306 306 305
343 340 325 317 315 312 306 302 297 293 297 300 299 293 283 292 296 288 269 268 270 279 289 297 304 310 315 318 320 320 319 318 318 318 318 318 317 317 315 312 309 307 305 303
344 329 324 318 320 319 305 297 303 293 302 292 298 288 287 291 298 298 277 277 278 281 288 298 304 311 316 319 320 320 319 317 316 316 316 317 317 316 316 315 312 309 306 303
340 330 326 318 317 315 307 303 303 299 306 287 302 284 281 289 294 291 287 286 290 290 292 298 305 313 317 319 320 320 320 318 316 316 315 315 316 316 316 315 313 310 307 303
326 327 326 321 318 314 298 306 299 298 293 298 293 292 284 289 288 279 286 292 296 298 299 302 308 313 316 319 320 321 320 318 317 315 314 315 316 316 316 315 313 311 308 303
329 322 322 317 318 311 311 305 301 300 294 298 288 294 294 284 281 274 287 300 303 305 306 306 310 315 317 318 320 322 321 319 317 316 315 315 316 316 316 315 314 311 308 302
326 321 319 322 322 317 326 320 309 306 303 282 292 301 289 293 292 273 287 299 305 310 310 311 313 315 315 317 318 321 321 319 318 316 315 315 316 316 316 315 315 312 307 301
328 322 323 322 323 315 321 316 302 293 295 296 297 291 299 297 287 284 291 301 305 309 310 311 312 315 315 316 318 319 319 319 318 317 315 316 316 316 316 316 315 312 307 300
323 310 315 318 318 319 313 313 302 302 298 304 295 297 300 298 292 291 292 300 305 308 309 311 313 314 314 315 316 317 317 318 318 317 316 317 317 317 316 316 315 312 307 299
313 312 313 311 311 314 312 306 312 311 307 302 298 296 295 286 281 286 292 297 303 305 308 310 312 312 312 314 314 315 316 317 317 317 317 318 318 318 317 317 315 311 306 299
314 310 309 311 303 300 309 308 309 304 300 292 302 295 299 287 279 282 287 300 302 305 306 309 310 310 311 312 312 312 315 316 317 317 317 318 319 319 318 317 315 311 306 298
307 306 304 302 308 301 299 294 297 303 298 293 295 296 299 295 292 283 289 297 301 302 305 307 308 308 309 309 310 310 313 315 315 316 317 318 319 319 318 317 315 310 304 297
303 302 306 307 308 306 298 297 296 298 297 285 287 297 302 304 298 291 294 298 301 301 303 306 306 306 307 307 308 309 312 313 314 316 317 318 318 319 318 317 314 308 303 294
297 295 288 292 292 298 296 295 293 290 292 292 281 290 294 295 295 293 295 298 297 299 303 305 305 305 304 304 306 308 310 312 313 315 316 316 317 318 318 317 312 306 301 292
292 290 290 287 291 291 291 291 287 281 280 285 292 290 292 295 296 294 296 296 299 302 304 304 304 304 303 303 305 307 309 311 312 313 314 315 316 316 316 316 311 305 299 289
290 293 296 293 291 292 292 289 286 282 282 283 287 291 292 294 297 296 296 297 299 302 303 304 304 304 303 303 304 305 307 309 310 311 312 313 315 315 315 314 308 303 297 288
287 292 295 293 299 299 295 293 291 295 293 293 291 292 300 301 300 299 298 298 300 302 303 304 304 304 303 304 304 304 305 307 308 309 310 311 312 313 312 311 306 301 294 286
286 290 291 295 299 292 294 298 298 292 294 287 298 297 298 298 299 298 298 299 301 302 303 303 303 303 304 304 304 303 304 305 306 307 308 308 309 309 309 308 304 299 292 285
284 286 290 291 291 297 298 300 298 294 297 293 291 297 299 299 300 299 300 301 301 302 303 303 303 303 304 305 304 304 304 304 304 304 305 306 306 305 305 304 301 297 291 283
289 288 285 292 291 292 295 301 298 298 296 299 299 301 301 302 300 302 303 303 304 303 303 304 304 304 305 305 305 304 303 303 302 302 302 302 302 301 301 299 297 295 289 281
292 290 281 284 289 294 296 297 297 297 297 300 299 300 298 297 298 301 303 303 303 303 304 304 304 304 305 306 305 304 303 301 301 300 300 300 299 298 297 295 293 291 286 280
285 284 288 289 289 293 293 296 292 296 298 298 298 299 299 298 300 301 301 303 304 304 304 304 303 303 305 305 304 304 303 301 300 300 299 299 297 296 295 292 290 287 283 277
288 283 288 280 286 292 290 291 293 295 296 298 298 298 297 298 301 302 302 303 304 304 305 305 304 304 304 305 304 303 303 302 301 300 299 299 297 295 293 290 288 284 281 275
287 286 286 290 290 287 290 291 293 294 296 298 297 296 298 300 302 302 303 303 304 305 305 305 305 304 305 305 305 303 304 302 301 300 299 298 296 295 291 288 286 282 279 275
287 288 288 286 290 292 293 293 294 295 295 295 297 298 300 302 302 303 304 305 306 306 306 306 306 306 306 307 306 305 304 302 301 300 299 298 296 294 290 286 284 282 278 274
286 285 284 286 292 291 291 292 292 293 294 297 301 302 303 304 304 305 305 306 307 307 307 307 308 308 308 308 308 308 306 303 301 300 299 298 297 294 289 287 286 282 279 278